| time (UTC) | temp F | wind direction | speed knots | gust knots | rain 1hr in | rain 24hr in | rain mn in | humidity % | barometer mb |
| 20260506044527 | 48 | 316 | 0.9 | 5.2 | 0.00 | 0.00 | 0.00 | 18 | 1013.3 |
| 20260506043022 | 48 | 358 | 0.9 | 4.3 | 0.00 | 0.00 | 0.00 | 20 | 1013.3 |
| 20260506041517 | 48 | 322 | 0.9 | 6.1 | 0.00 | 0.00 | 0.00 | 21 | 1013.4 |
| 20260506040021 | 48 | 29 | 1.7 | 4.3 | 0.00 | 0.00 | 0.00 | 20 | 1013.4 |
| 20260506034518 | 48 | 48 | 1.7 | 5.2 | 0.00 | 0.00 | 0.00 | 20 | 1013.3 |
| 20260506033003 | 49 | 308 | 1.7 | 6.1 | 0.00 | 0.00 | 0.00 | 15 | 1013.3 |
| 20260506031608 | 49 | 15 | 0.0 | 7.0 | 0.00 | 0.00 | 0.00 | 13 | 1013.4 |
| 20260506030055 | 50 | 37 | 0.9 | 4.3 | 0.00 | 0.00 | 0.00 | 11 | 1013.4 |
| 20260506024607 | 50 | 312 | 0.9 | 3.5 | 0.00 | 0.00 | 0.00 | 13 | 1013.3 |
| 20260506023047 | 50 | 42 | 1.7 | 7.0 | 0.00 | 0.00 | 0.00 | 13 | 1013.3 |
| 20260506021543 | 50 | 4 | 2.6 | 4.3 | 0.00 | 0.00 | 0.00 | 10 | 1013.4 |
| 20260506020038 | 51 | 24 | 1.7 | 5.2 | 0.00 | 0.00 | 0.00 | 6 | 1013.5 |
| 20260506014535 | 51 | 343 | 0.0 | 5.2 | 0.00 | 0.00 | 0.00 | 8 | 1013.5 |
| 20260506013039 | 51 | 31 | 0.9 | 7.0 | 0.00 | 0.00 | 0.00 | 11 | 1013.4 |
| 20260506011526 | 51 | 340 | 1.7 | 7.8 | 0.00 | 0.00 | 0.00 | 14 | 1013.4 |
| 20260506010026 | 51 | 36 | 1.7 | 6.1 | 0.00 | 0.00 | 0.00 | 17 | 1013.5 |
| 20260506004523 | 51 | 92 | 1.7 | 7.8 | 0.00 | 0.00 | 0.00 | 19 | 1013.5 |
| 20260506003021 | 51 | 21 | 0.9 | 7.0 | 0.00 | 0.00 | 0.00 | 23 | 1013.6 |
| 20260506001521 | 51 | 57 | 1.7 | 8.7 | 0.00 | 0.00 | 0.00 | 29 | 1013.7 |
| 20260506000016 | 52 | 353 | 2.6 | 7.8 | 0.00 | 0.00 | 0.00 | 35 | 1013.7 |
| 20260505234513 | 52 | 332 | 2.6 | 7.8 | 0.00 | 0.00 | 0.00 | 38 | 1013.6 |
| 20260505233018 | 52 | 37 | 1.7 | 10.4 | 0.00 | 0.00 | 0.00 | 40 | 1013.6 |
| 20260505231510 | 52 | 329 | 1.7 | 7.0 | 0.00 | 0.00 | 0.00 | 39 | 1013.5 |
| 20260505230018 | 53 | 36 | 1.7 | 9.6 | 0.00 | 0.00 | 0.00 | 40 | 1013.7 |
| 20260505224501 | 53 | 20 | 1.7 | 9.6 | 0.00 | 0.00 | 0.00 | 40 | 1013.6 |
| 20260505223110 | 53 | 10 | 3.5 | 9.6 | 0.00 | 0.00 | 0.00 | 44 | 1013.5 |
| 20260505221554 | 53 | 13 | 2.6 | 8.7 | 0.00 | 0.00 | 0.00 | 50 | 1013.3 |
| 20260505220049 | 53 | 358 | 4.3 | 8.7 | 0.00 | 0.00 | 0.00 | 52 | 1013.3 |
| 20260505214544 | 53 | 328 | 2.6 | 12.2 | 0.00 | 0.00 | 0.00 | 54 | 1013.3 |
| 20260505213051 | 54 | 48 | 2.6 | 9.6 | 0.00 | 0.00 | 0.00 | 55 | 1013.2 |
| 20260505211535 | 54 | 353 | 2.6 | 8.7 | 0.00 | 0.00 | 0.00 | 55 | 1013.1 |
| 20260505210031 | 54 | 339 | 3.5 | 7.8 | 0.00 | 0.00 | 0.00 | 54 | 1013.0 |
| 20260505204528 | 55 | 58 | 4.3 | 7.8 | 0.00 | 0.00 | 0.00 | 55 | 1013.0 |
| 20260505203041 | 55 | 353 | 2.6 | 9.6 | 0.00 | 0.00 | 0.00 | 54 | 1012.9 |
| 20260505201527 | 55 | 37 | 3.5 | 8.7 | 0.00 | 0.00 | 0.00 | 56 | 1012.9 |
| 20260505200031 | 56 | 43 | 2.6 | 10.4 | 0.00 | 0.00 | 0.00 | 55 | 1012.7 |
| 20260505194515 | 56 | 18 | 3.5 | 8.7 | 0.00 | 0.00 | 0.00 | 57 | 1012.5 |
| 20260505193112 | 56 | 335 | 2.6 | 7.8 | 0.00 | 0.00 | 0.00 | 59 | 1012.3 |
| 20260505191508 | 57 | 306 | 0.9 | 4.3 | 0.00 | 0.00 | 0.00 | 59 | 1012.1 |
| 20260505190004 | 57 | 318 | 0.9 | 4.3 | 0.00 | 0.00 | 0.00 | 59 | 1012.1 |
| 20260505184502 | 57 | 348 | 0.0 | 5.2 | 0.00 | 0.00 | 0.00 | 60 | 1012.0 |
| 20260505183107 | 57 | 337 | 1.7 | 7.0 | 0.00 | 0.00 | 0.00 | 60 | 1012.0 |
| 20260505181556 | 58 | 311 | 1.7 | 4.3 | 0.00 | 0.00 | 0.00 | 60 | 1012.0 |
| 20260505180051 | 58 | 348 | 0.9 | 7.8 | 0.00 | 0.00 | 0.00 | 60 | 1012.0 |
| 20260505174550 | 58 | 313 | 2.6 | 8.7 | 0.00 | 0.00 | 0.00 | 60 | 1012.0 |
| 20260505173047 | 58 | 317 | 4.3 | 8.7 | 0.00 | 0.00 | 0.00 | 60 | 1012.1 |
| 20260505171538 | 58 | 348 | 1.7 | 8.7 | 0.00 | 0.00 | 0.00 | 60 | 1012.1 |
| 20260505170037 | 58 | 328 | 1.7 | 7.8 | 0.00 | 0.00 | 0.00 | 60 | 1012.1 |
| 20260505164546 | 58 | 6 | 3.5 | 7.8 | 0.00 | 0.00 | 0.00 | 60 | 1012.1 |
| 20260505163025 | 58 | 333 | 2.6 | 5.2 | 0.00 | 0.00 | 0.00 | 60 | 1012.1 |
| 20260505161520 | 58 | 6 | 0.9 | 5.2 | 0.00 | 0.00 | 0.00 | 60 | 1012.1 |
| 20260505153010 | 61 | 321 | 2.6 | 7.8 | 0.00 | 0.00 | 0.00 | 60 | 1012.3 |
| 20260505151502 | 61 | 333 | 0.9 | 4.3 | 0.00 | 0.00 | 0.00 | 58 | 1012.3 |
| 20260505124525 | 60 | 358 | 1.7 | 4.3 | 0.00 | 0.00 | 0.00 | 59 | 1012.8 |
| 20260505123014 | 61 | 37 | 1.7 | 5.2 | 0.00 | 0.00 | 0.00 | 59 | 1012.9 |
| 20260505121510 | 61 | 19 | 0.9 | 7.0 | 0.00 | 0.00 | 0.00 | 59 | 1012.9 |
| 20260505120006 | 60 | 338 | 2.6 | 7.8 | 0.00 | 0.00 | 0.00 | 59 | 1012.8 |
| 20260505114501 | 59 | 304 | 2.6 | 7.0 | 0.00 | 0.00 | 0.00 | 58 | 1012.9 |
| 20260505113101 | 58 | 40 | 2.6 | 5.2 | 0.00 | 0.00 | 0.00 | 55 | 1013.0 |
| 20260505111556 | 57 | 339 | 0.9 | 6.1 | 0.00 | 0.00 | 0.00 | 52 | 1013.2 |
| 20260505101533 | 56 | 2 | 2.6 | 6.1 | 0.00 | 0.00 | 0.00 | 45 | 1013.6 |
| 20260505100040 | 56 | 307 | 1.7 | 9.6 | 0.00 | 0.00 | 0.00 | 42 | 1013.5 |
| 20260505094524 | 56 | 353 | 0.9 | 6.1 | 0.00 | 0.00 | 0.00 | 30 | 1013.6 |
| 20260505093019 | 56 | 310 | 1.7 | 7.0 | 0.00 | 0.00 | 0.00 | 28 | 1013.6 |
| 20260505091514 | 56 | 297 | 4.3 | 10.4 | 0.00 | 0.00 | 0.00 | 23 | 1013.7 |
| 20260505090010 | 56 | 62 | 3.5 | 8.7 | 0.00 | 0.00 | 0.00 | 9 | 1013.6 |
| 20260505084506 | 55 | 289 | 3.5 | 7.0 | 0.00 | 0.00 | 0.00 | 1 | 1013.8 |
| 20260505083005 | 54 | 304 | 2.6 | 7.0 | 0.00 | 0.00 | 0.00 | 1 | 1013.9 |
| 20260505081604 | 53 | 311 | 1.7 | 5.2 | 0.00 | 0.00 | 0.00 | 1 | 1013.9 |
| 20260505080059 | 53 | 33 | 2.6 | 7.0 | 0.00 | 0.00 | 0.00 | 1 | 1014.0 |
| 20260505074609 | 53 | 334 | 1.7 | 4.3 | 0.00 | 0.00 | 0.00 | 1 | 1013.8 |
| 20260505073052 | 53 | 316 | 0.9 | 4.3 | 0.00 | 0.00 | 0.00 | 1 | 1013.9 |
| 20260505071545 | 53 | 4 | 1.7 | 5.2 | 0.00 | 0.00 | 0.00 | 1 | 1014.0 |
| 20260505070040 | 52 | 325 | 0.9 | 4.3 | 0.00 | 0.00 | 0.00 | 1 | 1014.0 |
| 20260505064537 | 51 | 33 | 1.7 | 4.3 | 0.00 | 0.00 | 0.00 | 1 | 1014.0 |
| 20260505063039 | 51 | 301 | 0.9 | 3.5 | 0.00 | 0.00 | 0.00 | 1 | 1014.0 |
| 20260505061532 | 50 | 320 | 1.7 | 5.2 | 0.00 | 0.00 | 0.00 | 1 | 1013.9 |
| 20260505060021 | 50 | 297 | 0.0 | 4.3 | 0.00 | 0.00 | 0.00 | 1 | 1014.0 |
| 20260505054523 | 50 | 343 | 1.7 | 4.3 | 0.00 | 0.00 | 0.00 | 1 | 1014.0 |
| 20260505053012 | 50 | 297 | 0.0 | 3.5 | 0.00 | 0.00 | 0.00 | 1 | 1014.0 |